DW6120 Weather Reports


Display with metric or nautical units.
time (UTC)temp
F
wind
direction
speed
MPH
gust
MPH
rain 1hr
in
rain 24hr
in
rain mn
in
humidity
%
barometer
mb
20260906093016 73 91 10.0 19.0 0.00 0.00 0.00 28 1006.6
20260906091514 73 140 11.0 22.0 0.00 0.00 0.00 27 1006.7
20260906084515 72 175 5.0 11.0 0.00 0.00 0.00 27 1006.6
20260906083012 72 153 3.0 19.0 0.00 0.00 0.00 27 1006.6
20260906081511 73 169 5.0 16.0 0.00 0.00 0.00 27 1006.7
20260906074508 72 139 5.0 10.0 0.00 0.00 0.00 28 1006.8
20260906073016 73 134 2.0 16.0 0.00 0.00 0.00 28 1006.6
20260906071504 73 173 1.0 12.0 0.00 0.00 0.00 27 1006.6
20260906064601 75 119 8.0 16.0 0.00 0.00 0.00 26 1006.6
20260906063056 75 60 16.0 23.0 0.00 0.00 0.00 26 1006.5
20260906061559 75 118 7.0 17.0 0.00 0.00 0.00 26 1006.4
20260906054606 75 139 10.0 24.0 0.00 0.00 0.00 25 1006.2
20260906053056 75 129 7.0 15.0 0.00 0.00 0.00 25 1006.2
20260906051555 76 143 8.0 20.0 0.00 0.00 0.00 23 1006.1
20260906044555 76 130 9.0 18.0 0.00 0.00 0.00 23 1006.5
20260906043057 76 147 8.0 16.0 0.00 0.00 0.00 22 1006.3
20260906041555 76 124 9.0 17.0 0.00 0.00 0.00 23 1006.2
20260906034556 76 107 7.0 13.0 0.00 0.00 0.00 22 1006.0
20260906033106 76 107 5.0 11.0 0.00 0.00 0.00 23 1005.9
20260906031559 76 107 5.0 13.0 0.00 0.00 0.00 24 1005.7
20260906024602 77 138 5.0 11.0 0.00 0.00 0.00 24 1005.3
20260906023056 77 205 6.0 11.0 0.00 0.00 0.00 23 1004.8
20260906021554 77 162 4.0 10.0 0.00 0.00 0.00 23 1004.7
20260906014557 80 147 2.0 8.0 0.00 0.00 0.00 22 1004.4
20260906013051 81 222 2.0 12.0 0.00 0.00 0.00 22 1004.4
20260906011550 82 146 3.0 9.0 0.00 0.00 0.00 20 1004.6
20260906004553 84 242 4.0 10.0 0.00 0.00 0.00 20 1004.5
20260906003049 84 223 2.0 8.0 0.00 0.00 0.00 19 1004.6
20260906001548 84 36 2.0 13.0 0.00 0.00 0.00 20 1004.6
20260905234609 83 268 6.0 17.0 0.00 0.00 0.00 18 1004.8
20260905233050 83 293 7.0 16.0 0.00 0.00 0.00 18 1004.7
20260905231554 83 273 7.0 14.0 0.00 0.00 0.00 20 1004.9
20260905224546 83 229 5.0 12.0 0.00 0.00 0.00 20 1005.2
20260905223044 84 234 8.0 17.0 0.00 0.00 0.00 19 1005.2
20260905221546 83 154 4.0 11.0 0.00 0.00 0.00 19 1005.2
20260905214540 82 128 3.0 13.0 0.00 0.00 0.00 20 1005.7
20260905213040 82 208 4.0 22.0 0.00 0.00 0.00 23 1005.7
20260905211541 82 284 4.0 17.0 0.00 0.00 0.00 22 1006.0
20260905204537 82 119 5.0 17.0 0.00 0.00 0.00 23 1006.3
20260905203036 81 230 5.0 17.0 0.00 0.00 0.00 23 1006.2
20260905201532 80 219 9.0 28.0 0.00 0.00 0.00 23 1006.5
20260905194533 79 225 7.0 18.0 0.00 0.00 0.00 23 1006.7
20260905193038 80 150 5.0 25.0 0.00 0.00 0.00 24 1006.9
20260905191532 80 240 6.0 24.0 0.00 0.00 0.00 24 1007.2
20260905184528 78 173 2.0 15.0 0.00 0.00 0.00 25 1007.3
20260905183027 78 156 8.0 21.0 0.00 0.00 0.00 25 1007.7
20260905181525 78 221 2.0 15.0 0.00 0.00 0.00 26 1007.9
20260905174521 76 251 6.0 14.0 0.00 0.00 0.00 27 1008.1
20260905173021 76 230 4.0 17.0 0.00 0.00 0.00 26 1008.1
20260905171532 76 198 6.0 12.0 0.00 0.00 0.00 26 1008.2
20260905164523 75 221 4.0 13.0 0.00 0.00 0.00 26 1008.2
20260905163017 75 221 6.0 10.0 0.00 0.00 0.00 26 1008.2
20260905161515 75 242 2.0 13.0 0.00 0.00 0.00 26 1008.1
20260905154512 74 128 5.0 11.0 0.00 0.00 0.00 27 1008.2
20260905153010 73 146 3.0 7.0 0.00 0.00 0.00 27 1008.1
20260905151510 72 151 5.0 10.0 0.00 0.00 0.00 27 1008.1
20260905144513 69 70 9.0 17.0 0.00 0.00 0.00 28 1007.9
20260905143006 69 138 6.0 13.0 0.00 0.00 0.00 29 1007.9
20260905141506 69 144 6.0 13.0 0.00 0.00 0.00 29 1007.7
20260905134600 69 100 8.0 16.0 0.00 0.00 0.00 29 1007.4
20260905133058 70 120 4.0 12.0 0.00 0.00 0.00 28 1007.2
20260905131557 69 202 7.0 15.0 0.00 0.00 0.00 28 1006.9
20260905130156 69 147 7.0 13.0 0.00 0.00 0.00 28 1006.6
20260905124558 69 128 7.0 13.0 0.00 0.00 0.00 27 1006.5
20260905123051 69 140 4.0 14.0 0.00 0.00 0.00 27 1006.4
20260905121550 69 131 4.0 18.0 0.00 0.00 0.00 27 1006.3
20260905120147 70 150 7.0 20.0 0.00 0.00 0.00 26 1006.3
20260905114547 70 150 6.0 20.0 0.00 0.00 0.00 26 1006.4
20260905113059 70 145 5.0 18.0 0.00 0.00 0.00 26 1006.4
20260905111543 70 95 5.0 15.0 0.00 0.00 0.00 26 1006.3
20260905110142 70 161 8.0 19.0 0.00 0.00 0.00 26 1006.3
20260905104542 70 161 5.0 11.0 0.00 0.00 0.00 27 1006.3
20260905103046 71 155 7.0 17.0 0.00 0.00 0.00 27 1006.2
20260905101538 71 96 7.0 17.0 0.00 0.00 0.00 28 1006.1
20260905100137 71 159 7.0 17.0 0.00 0.00 0.00 29 1005.9
20260905094535 71 144 9.0 24.0 0.00 0.00 0.00 30 1005.8